Wind_Speed
59 58 58 56 55 53 53 52 52 51 50 48 49 50 47 44 44 42 40 40 40 37 33 35 38 40 43 43 43 42 43 41 43 43 43 43 46 50 48 47 46 48 49 48
63 62 59 59 58 58 57 57 57 56 56 54 53 54 52 49 47 47 45 44 43 39 39 41 44 44 47 47 46 45 45 45 45 43 43 46 48 49 48 48 48 51 53 53
63 61 60 61 60 60 61 60 59 59 59 58 60 57 54 52 50 47 47 47 45 46 46 47 48 49 50 51 52 49 47 45 43 43 44 45 46 46 48 50 52 53 53 55
62 61 61 61 61 63 63 61 61 61 62 64 63 67 55 51 50 47 45 48 50 51 52 52 50 51 53 54 55 53 52 50 47 49 51 53 52 50 51 53 54 54 54 55
64 62 64 62 62 64 63 62 62 65 67 67 65 67 58 53 52 49 46 48 51 54 53 53 54 55 54 54 55 56 57 55 52 52 55 57 57 56 55 54 56 56 56 56
65 66 64 64 64 65 65 65 65 65 66 72 66 67 57 58 59 56 51 53 52 55 56 56 57 57 57 55 55 57 58 58 55 54 52 52 53 54 56 56 55 55 56 58
71 70 69 67 68 67 66 65 67 67 69 72 67 69 61 62 62 61 59 56 59 57 58 59 60 59 58 55 55 56 58 57 57 54 50 51 50 47 49 49 49 51 56 61
68 69 70 68 67 65 62 61 64 65 68 68 66 71 67 62 62 62 59 59 61 58 57 56 57 56 53 52 53 53 54 57 60 61 59 58 56 52 52 50 50 48 49 51
64 67 66 64 61 60 61 63 58 59 62 65 69 70 66 64 60 59 60 60 58 55 54 54 53 53 52 49 47 43 44 49 51 51 52 50 48 49 50 49 47 45 51 53
62 63 61 58 55 56 57 55 55 59 62 64 64 62 61 59 49 51 54 58 58 55 54 53 48 50 51 52 49 49 48 46 48 51 50 49 43 45 48 50 50 53 50 51
56 58 59 58 61 55 53 54 54 52 49 49 50 56 52 51 53 50 46 44 50 50 39 34 28 30 32 33 40 44 42 46 49 50 51 53 54 51 48 51 55 54 53 55
48 53 53 54 54 54 54 52 50 51 50 49 49 54 49 50 49 45 43 41 38 32 33 36 40 40 41 39 37 40 43 47 50 52 55 56 56 57 52 50 53 53 54 54
45 50 50 52 55 55 55 52 51 50 48 50 50 51 46 42 39 40 37 30 33 32 35 32 34 38 40 41 40 40 43 46 48 46 48 49 50 51 51 53 54 54 56 59
44 48 51 51 47 47 48 46 46 47 48 48 50 45 41 41 48 51 53 48 40 40 34 36 41 40 36 36 38 43 44 45 45 45 46 48 48 51 51 50 53 56 57 56
49 48 45 45 47 49 47 45 45 48 45 48 43 45 41 45 50 46 43 41 33 34 38 40 42 41 40 41 44 49 53 60 59 56 57 54 57 55 53 53 54 57 56 58
42 43 46 45 44 45 49 51 47 47 45 49 44 46 41 43 41 40 40 42 45 43 40 39 42 46 44 44 50 57 57 57 55 54 60 59 57 61 66 59 60 61 62 63
41 40 44 43 44 46 52 43 42 40 43 46 46 37 42 44 46 44 39 37 36 39 38 41 43 35 48 50 57 49 43 42 41 44 51 50 49 48 53 53 47 48 49 57
52 44 43 41 38 48 40 36 36 39 44 48 44 38 39 41 42 42 40 40 40 40 41 35 41 40 54 50 57 63 58 59 59 58 54 55 54 53 55 54 54 53 56 59
58 45 36 36 39 36 36 39 39 41 37 39 40 38 35 33 35 35 37 37 37 38 36 36 40 45 50 57 59 57 54 51 48 45 43 44 46 48 50 52 54 56 59 62
59 56 54 54 51 51 30 33 37 38 39 34 35 32 35 38 40 36 35 36 39 40 42 42 43 45 49 53 55 55 54 49 45 45 46 47 48 48 50 52 54 55 57 60
59 60 62 59 53 51 39 38 43 47 37 34 35 40 39 37 36 36 37 39 40 41 41 42 43 45 48 50 52 53 53 50 48 47 47 48 49 50 53 56 59 62 64 66
39 40 57 52 52 57 54 52 50 43 43 37 43 43 38 34 34 36 38 39 39 39 41 42 43 45 46 47 48 49 50 50 50 52 53 53 55 58 61 64 66 68 69 71
56 57 44 46 50 52 54 49 44 41 44 46 37 36 36 36 37 37 37 38 40 41 43 43 44 46 47 47 47 47 48 51 54 54 56 59 62 65 69 71 74 77 80 82
41 43 46 46 44 47 49 49 48 46 46 35 34 39 39 39 39 40 41 42 43 44 45 46 45 44 45 45 47 50 53 56 58 60 63 65 69 72 76 79 83 86 88 91
40 45 43 36 36 43 43 43 43 39 36 35 41 43 42 42 43 43 43 43 41 41 42 41 41 43 46 49 51 54 58 61 64 68 71 74 76 78 80 84 87 91 96 98
43 39 43 39 38 41 35 37 38 37 40 44 45 44 46 45 44 44 44 43 42 42 42 44 46 49 51 53 56 59 63 67 70 74 77 79 81 84 85 87 88 92 95 98
Wind_Direction
237 240 244 246 247 249 252 255 257 259 261 263 267 269 270 268 269 272 272 271 272 278 280 279 278 278 281 283 282 280 280 280 277 279 278 279 279 279 278 278 277 279 277 276
239 242 243 247 249 252 254 256 259 262 264 265 266 265 266 267 269 270 273 276 277 277 276 276 277 279 280 282 282 281 279 276 275 278 277 275 276 279 278 277 278 277 278 279
242 244 246 248 250 253 256 259 260 262 263 264 265 264 263 266 269 274 277 278 277 275 276 277 278 279 280 280 280 278 276 275 273 272 270 269 273 274 273 273 271 272 275 278
241 241 241 245 251 252 254 257 260 262 264 265 264 267 262 265 268 272 277 276 277 278 279 278 276 275 276 278 279 278 275 272 267 265 265 268 271 274 274 273 274 271 272 273
245 246 251 253 255 255 257 256 259 260 261 263 265 268 268 268 269 273 274 276 276 276 279 279 277 275 275 275 274 273 273 273 268 264 263 265 269 270 270 272 274 271 269 271
243 245 246 248 247 250 253 255 257 260 262 263 266 268 266 275 278 280 282 278 279 280 278 278 278 278 276 273 269 265 266 266 266 267 267 266 267 270 271 272 271 268 266 265
244 246 247 248 250 250 251 254 257 258 261 266 267 268 273 274 279 278 278 280 279 279 280 280 279 279 278 273 266 263 260 260 260 261 262 261 259 265 269 269 271 271 269 266
244 246 248 250 252 255 256 256 257 259 263 267 267 268 271 272 274 277 279 282 282 281 278 275 275 272 270 269 266 262 259 256 256 259 263 262 263 270 272 273 271 273 275 274
249 249 249 250 248 249 252 255 259 261 261 263 265 268 269 274 276 276 276 275 274 274 270 268 266 265 265 264 260 262 262 260 262 261 261 264 263 266 271 269 271 272 276 276
246 247 247 250 250 250 253 254 253 255 259 261 267 268 270 271 272 271 273 277 276 269 267 271 272 268 268 264 266 264 265 264 260 260 259 266 267 269 270 272 276 275 278 274
247 249 249 248 250 252 253 255 255 257 256 259 264 266 269 270 271 274 272 260 261 265 273 274 276 276 262 266 268 268 266 263 264 265 267 264 260 269 276 271 272 274 274 276
251 248 249 252 251 251 249 250 249 248 250 252 255 262 266 267 271 265 262 259 252 259 267 272 275 272 265 272 272 270 270 269 268 269 270 271 273 274 273 272 272 273 273 275
243 242 244 246 247 247 249 253 253 253 250 252 256 259 264 263 258 256 249 252 270 273 272 279 286 279 269 272 270 274 274 275 275 275 276 277 275 273 275 275 275 275 275 278
237 239 242 249 255 254 253 253 251 253 253 257 258 264 261 253 252 261 267 264 272 283 277 277 274 273 280 271 272 273 272 276 280 281 281 279 278 279 278 278 278 277 276 278
232 233 240 242 244 243 241 240 244 251 252 255 258 258 257 256 260 271 276 274 272 281 277 275 269 276 269 281 280 273 275 274 275 276 279 280 276 276 278 282 281 280 281 281
227 235 237 242 242 245 245 244 244 251 250 252 257 258 261 266 266 266 267 265 272 273 276 280 283 285 282 279 275 267 260 263 270 274 269 268 269 271 274 273 272 273 275 276
236 245 245 247 248 248 249 244 254 258 255 254 258 264 262 262 264 266 269 272 274 276 276 273 277 276 273 270 262 253 259 264 262 275 283 269 269 267 276 289 286 281 285 281
236 243 248 253 242 243 248 239 249 256 250 250 257 263 268 266 267 272 274 273 272 273 275 277 271 271 260 266 268 287 289 294 293 298 294 294 290 292 285 290 289 286 281 280
233 233 227 234 239 243 243 243 245 256 256 257 263 264 269 274 273 270 271 273 273 270 267 262 256 260 260 261 271 278 282 282 280 279 280 279 279 280 280 281 282 281 281 280
231 227 227 241 251 255 239 244 246 257 256 253 259 271 272 267 267 272 272 270 269 269 270 270 269 268 267 269 272 276 280 281 282 282 283 284 285 284 284 284 284 283 282 280
236 236 238 242 250 252 242 249 243 250 261 262 268 276 276 270 272 269 269 270 271 271 271 270 270 270 270 271 274 276 279 282 283 283 283 284 286 288 291 291 290 289 288 286
231 237 238 239 245 250 249 252 254 258 262 263 280 278 268 268 268 268 269 270 271 271 271 270 269 270 270 270 271 273 276 278 281 284 287 289 291 291 292 292 291 291 290 290
235 237 247 248 256 257 261 258 258 263 257 268 271 264 264 264 266 270 270 272 273 272 271 270 270 270 271 274 276 276 278 280 283 285 287 289 291 293 293 294 295 296 296 295
229 239 245 253 253 258 259 259 260 260 261 258 260 261 264 267 268 268 271 274 275 274 274 272 270 271 272 273 276 279 282 284 286 288 290 291 292 294 296 297 297 297 297 297
243 252 255 248 250 255 249 247 252 254 254 256 258 261 263 265 267 271 274 275 273 271 270 270 271 272 273 275 278 281 284 287 289 290 291 292 294 295 296 296 297 297 296 297
234 243 243 258 256 249 253 257 252 258 258 256 256 258 262 264 269 272 273 270 269 268 269 270 272 274 276 278 282 284 287 288 290 292 294 294 294 295 295 296 299 300 300 302
Height
5758 5764 5770 5778 5782 5786 5790 5793 5796 5799 5803 5806 5807 5810 5815 5820 5819 5821 5822 5822 5820 5823 5826 5825 5824 5824 5824 5825 5825 5825 5824 5825 5823 5822 5821 5820 5819 5817 5817 5815 5815 5813 5810 5809
5747 5755 5762 5766 5771 5774 5779 5781 5784 5787 5790 5795 5797 5800 5802 5806 5810 5810 5811 5812 5813 5815 5815 5814 5812 5813 5812 5813 5814 5815 5815 5813 5812 5811 5811 5809 5809 5808 5807 5806 5805 5802 5800 5798
5735 5746 5752 5756 5760 5763 5767 5770 5772 5775 5776 5780 5781 5787 5792 5795 5798 5802 5802 5801 5801 5801 5802 5802 5802 5802 5802 5802 5801 5802 5801 5800 5800 5799 5798 5798 5797 5797 5796 5795 5792 5790 5789 5788
5722 5730 5736 5743 5748 5751 5755 5759 5761 5761 5762 5765 5768 5763 5782 5787 5790 5792 5794 5787 5786 5787 5788 5789 5791 5791 5789 5788 5787 5787 5787 5787 5786 5785 5786 5785 5784 5785 5784 5782 5780 5778 5777 5776
5714 5721 5726 5737 5743 5740 5745 5745 5747 5746 5746 5748 5756 5755 5768 5776 5780 5783 5780 5776 5773 5772 5775 5776 5776 5776 5777 5776 5774 5772 5771 5771 5772 5771 5771 5770 5769 5769 5768 5768 5767 5765 5763 5763
5701 5707 5713 5722 5726 5728 5731 5731 5732 5732 5731 5731 5746 5744 5759 5761 5759 5760 5762 5756 5758 5760 5761 5760 5761 5762 5761 5761 5760 5759 5758 5757 5757 5757 5757 5757 5757 5755 5754 5753 5752 5751 5750 5748
5689 5695 5702 5711 5711 5715 5719 5720 5718 5717 5719 5722 5732 5728 5748 5746 5744 5742 5743 5744 5743 5747 5747 5746 5745 5745 5745 5745 5744 5743 5742 5742 5743 5744 5744 5744 5744 5743 5743 5742 5740 5738 5737 5735
5673 5682 5689 5698 5701 5704 5707 5710 5706 5706 5708 5709 5718 5716 5730 5733 5731 5728 5729 5733 5728 5730 5732 5732 5731 5729 5729 5728 5728 5728 5727 5728 5728 5729 5730 5731 5731 5731 5730 5730 5729 5727 5724 5722
5663 5668 5676 5681 5686 5690 5692 5692 5700 5695 5695 5693 5699 5709 5719 5718 5717 5718 5718 5715 5714 5713 5714 5716 5717 5715 5715 5715 5716 5716 5716 5716 5717 5718 5718 5718 5718 5718 5717 5716 5715 5713 5712 5710
5649 5654 5661 5666 5673 5675 5676 5683 5683 5680 5680 5682 5688 5695 5704 5703 5704 5705 5707 5705 5700 5699 5700 5700 5702 5704 5704 5704 5705 5705 5705 5705 5705 5706 5706 5706 5706 5706 5705 5704 5703 5701 5700 5698
5636 5642 5650 5653 5659 5665 5667 5668 5669 5670 5670 5672 5672 5678 5693 5693 5687 5692 5694 5694 5690 5688 5690 5690 5690 5691 5691 5691 5691 5692 5692 5693 5694 5694 5694 5694 5694 5692 5691 5691 5690 5688 5687 5686
5630 5630 5635 5643 5649 5651 5651 5656 5656 5656 5661 5662 5664 5669 5679 5678 5678 5677 5679 5680 5681 5680 5679 5679 5679 5681 5681 5682 5682 5682 5681 5681 5681 5681 5682 5681 5680 5679 5678 5678 5677 5675 5674 5673
5617 5615 5623 5629 5632 5635 5638 5647 5649 5650 5650 5651 5653 5658 5668 5669 5668 5665 5666 5667 5669 5669 5669 5669 5669 5669 5670 5672 5672 5672 5670 5670 5668 5667 5668 5667 5668 5667 5666 5665 5664 5663 5661 5659
5603 5605 5609 5617 5626 5629 5632 5637 5639 5638 5637 5644 5643 5651 5657 5658 5658 5656 5656 5658 5659 5660 5660 5660 5660 5659 5658 5657 5658 5658 5656 5656 5655 5655 5654 5655 5655 5655 5653 5651 5650 5649 5647 5645
5592 5595 5601 5608 5611 5613 5618 5622 5625 5624 5632 5629 5642 5636 5645 5646 5644 5646 5647 5647 5648 5650 5651 5650 5650 5648 5648 5647 5646 5646 5645 5643 5642 5643 5643 5642 5641 5641 5641 5639 5637 5635 5634 5632
5583 5588 5592 5596 5600 5601 5603 5607 5613 5617 5620 5617 5627 5627 5636 5634 5633 5634 5636 5637 5639 5640 5639 5637 5637 5637 5636 5636 5634 5633 5632 5632 5632 5632 5631 5629 5627 5626 5626 5624 5622 5620 5619 5617
5575 5580 5583 5587 5590 5590 5587 5602 5606 5609 5611 5614 5612 5625 5620 5620 5620 5623 5626 5626 5626 5626 5625 5626 5626 5624 5623 5622 5621 5620 5619 5619 5619 5620 5618 5617 5614 5611 5610 5609 5608 5606 5603 5601
5566 5570 5573 5576 5577 5574 5587 5594 5598 5598 5600 5601 5605 5610 5611 5610 5609 5612 5614 5614 5614 5614 5614 5613 5614 5614 5613 5613 5611 5606 5605 5604 5602 5600 5600 5598 5598 5596 5594 5592 5591 5588 5586 5584
5556 5562 5564 5565 5566 5572 5578 5587 5588 5586 5593 5595 5597 5598 5600 5600 5598 5600 5601 5601 5602 5602 5602 5602 5602 5602 5600 5600 5600 5597 5595 5594 5592 5589 5587 5586 5584 5582 5580 5578 5575 5572 5569 5566
5544 5550 5551 5553 5554 5557 5575 5577 5578 5576 5579 5587 5587 5589 5588 5586 5586 5591 5590 5589 5589 5589 5588 5588 5589 5589 5588 5587 5585 5582 5581 5579 5577 5574 5572 5570 5568 5565 5563 5561 5559 5555 5552 5548
5532 5537 5538 5543 5544 5550 5563 5566 5568 5566 5576 5579 5579 5578 5577 5575 5577 5577 5576 5576 5576 5576 5575 5576 5576 5575 5574 5572 5570 5568 5566 5564 5561 5559 5557 5555 5553 5550 5547 5543 5540 5536 5533 5527
5523 5526 5529 5535 5536 5541 5549 5553 5557 5565 5566 5566 5565 5565 5565 5564 5565 5565 5565 5565 5565 5565 5564 5563 5562 5560 5559 5558 5557 5555 5552 5550 5547 5545 5542 5540 5536 5534 5530 5525 5520 5516 5512 5507
5511 5518 5521 5524 5529 5539 5540 5545 5548 5551 5553 5553 5552 5552 5552 5552 5553 5553 5553 5553 5553 5552 5551 5549 5548 5547 5545 5544 5543 5541 5539 5537 5534 5531 5528 5525 5520 5516 5511 5506 5500 5494 5489 5484
5504 5509 5511 5515 5523 5526 5529 5532 5537 5538 5538 5539 5540 5540 5539 5540 5540 5541 5541 5540 5539 5538 5537 5536 5535 5534 5532 5531 5529 5527 5524 5521 5518 5514 5511 5507 5502 5496 5490 5483 5478 5470 5464 5457
5497 5500 5504 5506 5511 5514 5516 5519 5522 5524 5526 5526 5526 5527 5527 5528 5529 5529 5528 5527 5526 5525 5524 5523 5521 5520 5519 5517 5515 5512 5508 5505 5501 5497 5493 5487 5482 5476 5469 5461 5454 5447 5438 5432
5491 5492 5494 5498 5500 5503 5506 5507 5509 5511 5513 5512 5513 5513 5514 5516 5516 5516 5516 5514 5513 5512 5511 5509 5507 5506 5504 5502 5499 5496 5492 5488 5482 5477 5472 5467 5461 5455 5448 5442 5430 5420 5414 5404